Weather History for KBDR - March, 2014

Change the Weather History Date:

Tuesday, March 25, 2014

  Actual Average Record
Temperature  
Mean Temperature 31 °F 42 °F  
Max Temperature 37 °F 50 °F 68 °F (1987)
Min Temperature 24 °F 34 °F 15 °F (1956)
Degree Days  
Heating Degree Days 34 23  
Month to date heating degree days 780 666  
Since 1 July heating degree days 4828 4553  
Cooling Degree Days 0 0  
Month to date cooling degree days 0 0  
Year to date cooling degree days 0 0  
Moisture  
Dew Point 14 °F    
Average Humidity 51    
Maximum Humidity 63    
Minimum Humidity 38    
Precipitation  
Precipitation 0.00 in 0.13 in 1.77 in (1969)
Month to date precipitation 1.33 3.23  
Year to date precipitation 8.31 9.12  
Snow  
Snow 0.00 in 0.10 in T in (2007)
Month to date snowfall 0.1 4.5  
Since 1 July snowfall 56.3 26.1  
Snow Depth 0.00 in    
Sea Level Pressure  
Sea Level Pressure 30.07 in    
Wind  
Wind Speed 8 mph (East)    
Max Wind Speed 14 mph    
Max Gust Speed 16 mph    
Visibility 10 miles    
Events      
T = Trace of Precipitation, MM = Missing Value Source: NWS Daily Summary

Daily Weather History Graph

Daily Weather History Graph

Search for Another Location

Airport or City:

Trip Planner

Search our weather history database for the weather conditions in past years. The results will help you decide how hot, cold, wet, or windy it might be!

Date:

Astronomy

Mar. 25, 2014 Rise Set
Actual Time 6:47 AM EDT 7:10 PM EDT
Civil Twilight 6:19 AM EDT 7:37 PM EDT
Nautical Twilight 5:47 AM EDT 8:10 PM EDT
Astronomical Twilight 5:14 AM EDT 8:43 PM EDT
Moon 3:09 AM EDT (3/25) 1:34 PM EDT (3/25)
Length of Visible Light 13h 17m
Length of Day
12h 22m
Waning Crescent, 32% of the Moon is Illuminated
Mar 25
Waning Crescent
Mar 30
New
Apr 7
First Quarter
Apr 15
Full
Apr 22
Last Quarter

Hourly Weather History & Observations

Time (EDT) Temp. Windchill Dew Point Humidity Pressure Visibility Wind Dir Wind Speed Gust Speed Precip Events Conditions
12:52 AM 26.1 °F 21.9 °F 8.1 °F 47% 30.17 in 10.0 mi WNW 3.5 mph - N/A   Clear
1:52 AM 26.1 °F - 8.1 °F 47% 30.17 in 10.0 mi Calm Calm - N/A   Clear
2:52 AM 25.0 °F 20.7 °F 8.1 °F 49% 30.16 in 10.0 mi NNE 3.5 mph - N/A   Clear
3:52 AM 25.0 °F 18.1 °F 9.0 °F 51% 30.15 in 10.0 mi NE 5.8 mph - N/A   Clear
4:52 AM 24.1 °F 17.0 °F 10.9 °F 57% 30.14 in 10.0 mi East 5.8 mph - N/A   Clear
5:52 AM 25.0 °F 19.3 °F 12.0 °F 58% 30.16 in 10.0 mi SE 4.6 mph - N/A   Clear
6:52 AM 26.1 °F 18.4 °F 15.1 °F 63% 30.15 in 10.0 mi SSE 6.9 mph - N/A   Clear
7:52 AM 28.0 °F 21.7 °F 14.0 °F 56% 30.14 in 10.0 mi SSE 5.8 mph - N/A   Clear
8:52 AM 30.0 °F 24.1 °F 14.0 °F 51% 30.14 in 10.0 mi South 5.8 mph - N/A   Clear
9:52 AM 30.9 °F 25.2 °F 10.0 °F 42% 30.14 in 10.0 mi South 5.8 mph - N/A   Clear
10:52 AM 32.0 °F 26.4 °F 10.9 °F 42% 30.12 in 10.0 mi Variable 5.8 mph - N/A   Clear
11:52 AM 34.0 °F 27.2 °F 15.1 °F 46% 30.13 in 10.0 mi South 8.1 mph - N/A   Clear
12:52 PM 35.1 °F 30.1 °F 12.9 °F 40% 30.11 in 10.0 mi Variable 5.8 mph - N/A   Clear
1:52 PM 36.0 °F 31.1 °F 12.9 °F 39% 30.08 in 10.0 mi Variable 5.8 mph - N/A   Overcast
2:52 PM 36.0 °F 28.5 °F 16.0 °F 44% 30.04 in 10.0 mi ENE 10.4 mph - N/A   Overcast
3:52 PM 35.1 °F 27.4 °F 17.1 °F 48% 30.02 in 10.0 mi East 10.4 mph - N/A   Partly Cloudy
4:52 PM 36.0 °F 29.0 °F 18.0 °F 48% 29.99 in 10.0 mi East 9.2 mph - N/A   Partly Cloudy
5:52 PM 36.0 °F 28.5 °F 18.0 °F 48% 29.96 in 10.0 mi East 10.4 mph - N/A   Clear
6:52 PM 35.1 °F 27.9 °F 19.0 °F 52% 29.94 in 10.0 mi East 9.2 mph - N/A   Partly Cloudy
7:52 PM 35.1 °F 27.9 °F 19.0 °F 52% 29.95 in 10.0 mi ESE 9.2 mph - N/A   Overcast
8:52 PM 35.1 °F 27.4 °F 18.0 °F 50% 29.96 in 10.0 mi East 10.4 mph - N/A   Overcast
9:52 PM 34.0 °F 25.0 °F 19.0 °F 54% 29.93 in 10.0 mi East 12.7 mph - N/A   Overcast
10:52 PM 34.0 °F 26.0 °F 19.0 °F 54% 29.89 in 10.0 mi NE 10.4 mph - N/A   Overcast
11:52 PM 34.0 °F 26.6 °F 18.0 °F 52% 29.86 in 10.0 mi NNE 9.2 mph - N/A   Overcast